Content
SEND FEEDBACK

Daily
Averages
Monthly
Summary
Zimbabwe

HARARE, ZIMBABWE


Home > Africa > Zimbabwe
Elevation: 4930 feet     Latitude: 17 55S     Longitude: 031 08E

WEATHER
 
SELECT A DAY
Number of Records: 111,330;   Date Range: 7/1/96 - 7/23/14
 
SHARE

PRINT THIS DATA

[ ← Previous Day ]
WEATHER ALMANAC - JANUARY 31, 2013
[ Next Day → ]
[ °C ]   °F
Weather ElementAverageHighLow
Temperature70.8 °F82.4 °F (3:00 pm)55.4 °F (6:00 am)
Dewpoint57 °F59 °F (7:00 am)55.4 °F (6:00 am)
Humidity63.9 %100 % (6:00 am)34 % (2:00 pm)
Barometer30.06 in30.12 in (9:00 am)29.95 in (9:00 pm)
Wind Speed5 mph9.2 mph (11:00 am)
Weather ElementAverage
Visibility13.5 mi
Wind DirectionESE (128.4 °)

Weather ElementTotal
Precipitation---
Cooling Degree Days3.9 (Base 65)
Growing Degree Days18.9 (Base 50)
Averaged from 25 records on January 31, 2013
WEATHER CONDITIONS BREAKOUT
WIND DIRECTION BREAKOUT
WEATHER BY HOUR - JANUARY 31, 2013
[ °C ]   °F
Local TimeTemperatureDewpointHumidityBarometerVisibilityWind DirectionWind SpeedGust SpeedPrecipitationEventsConditions
2:00 AM60.0 °F57.0 °F87 %19.0 miESE (120°)1.2 mphClear
2:00 AM59.0 °F57.2 °F94 %30.06 inESE (120°)1.2 mphClear
3:00 AM59.0 °F57.2 °F94 %30.06 inEast (90°)3.5 mphClear
4:00 AM59.0 °F57.2 °F94 %30.06 inESE (120°)3.5 mphClear
5:00 AM59.0 °F57.2 °F94 %30.06 inEast (90°)1.2 mphClear
6:00 AM55.4 °F55.4 °F100 %30.09 inCalmClear
7:00 AM64.4 °F59.0 °F83 %30.09 inCalmClear
8:00 AM67.0 °F59.0 °F70 %19.0 miESE (110°)4.6 mphClear
9:00 AM71.6 °F59.0 °F64 %30.12 inSSE (150°)6.9 mphClear
10:00 AM77.0 °F57.2 °F50 %30.09 in6.2 miSSE (150°)5.8 mphPartly Cloudy
11:00 AM77.0 °F55.4 °F47 %30.09 in6.2 miSouth (180°)9.2 mphPartly Cloudy
12:00 PM80.6 °F55.4 °F42 %30.06 in6.2 miSSE (160°)5.8 mphPartly Cloudy
1:00 PM80.6 °F55.4 °F42 %30.06 inSouth (180°)8.1 mphClear
2:00 PM81.0 °F57.0 °F34 %19.0 miSE (130°)6.9 mphPartly Cloudy
2:00 PM80.6 °F57.2 °F45 %30.04 inSE (130°)6.9 mphClear
3:00 PM82.4 °F57.2 °F42 %30.04 inSE (140°)4.6 mphClear
4:00 PM82.4 °F55.4 °F39 %30.01 inSouth (170°)6.9 mphClear
5:00 PM82.4 °F55.4 °F39 %30.01 inSouth (180°)6.9 mphClear
6:00 PM78.8 °F57.2 °F47 %30.04 inSSW (200°)6.9 mphClear
7:00 PM73.4 °F55.4 °F53 %30.04 inSouth (170°)4.6 mphClear
8:00 PM70.0 °F57.0 °F54 %19.0 miSSE (150°)4.6 mphScattered Clouds
8:00 PM69.8 °F57.2 °F64 %30.06 inSSE (150°)4.6 mphClear
9:00 PM66.2 °F59.0 °F78 %29.95 inESE (110°)5.8 mphClear
10:00 PM68.0 °F57.2 °F68 %30.09 inESE (110°)8.1 mphClear
11:00 PM66.2 °F57.2 °F73 %30.12 inEast (100°)8.1 mphClear
Hourly data recorded from FVHA, located miles away from Harare, Zimbabwe







STORIES FROM OUR PARTNERS